Location: Izdebno
(52.6670°N, 16.2170°E)
Time: 04:48:58
(UTC+02:00)

A-11 Canister half - Pass Details

Date: 10 February 2023
Orbit: 1526 x 1682 km, 47.3° (Epoch: 25 March)

Event Time Altitude Azimuth Distance (km) Brightness Sun altitude
Rises 05:24:10 0° 244° (WSW) 4,680 - -18.3°
Reaches altitude 10° 05:27:16 10° 240° (WSW) 3,693 - -17.8°
Exits shadow 05:28:47 16° 238° (WSW) 3,222 10.2 -17.6°
Maximum altitude 05:36:16 58° 165° (SSE) 1,743 9.3 -16.4°
Drops below altitude 10° 05:45:22 10° 90° (E) 3,733 12.4 -15.0°
Sets 05:48:31 0° 87° (E) 4,733 13.4 -14.6°
